This is the latest recevied weather packets stored in our database for station/object M0SDM-10. If no packets are shown the sender has not sent any weather packets the latest 10 day(s).
| Time | Temp. | Humidity | Pressure | Rain* | Wind** | Luminosity | Snow |
|---|---|---|---|---|---|---|---|
| 1777337829 | 13.33° C | 65% | 1014.7 hPa | - | - | - | - |
| 1777336029 | 13.89° C | 65% | 1014.8 hPa | - | - | - | - |
| 1777334227 | 13.89° C | 65% | 1015 hPa | - | - | - | - |
| 1777332427 | 13.89° C | 64% | 1014.9 hPa | - | - | - | - |
| 1777330627 | 13.89° C | 64% | 1014.9 hPa | - | - | - | - |
| 1777328827 | 13.89° C | 64% | 1015.1 hPa | - | - | - | - |
| 1777327027 | 14.44° C | 63% | 1014.8 hPa | - | - | - | - |
| 1777325227 | 14.44° C | 63% | 1014.6 hPa | - | - | - | - |
| 1777323423 | 15° C | 62% | 1014.5 hPa | - | - | - | - |
| 1777321623 | 15° C | 61% | 1014.4 hPa | - | - | - | - |
| 1777319825 | 15.56° C | 61% | 1014.3 hPa | - | - | - | - |
| 1777318023 | 15.56° C | 61% | 1014.1 hPa | - | - | - | - |
| 1777316223 | 16.11° C | 61% | 1014 hPa | - | - | - | - |
| 1777314423 | 16.11° C | 61% | 1013.9 hPa | - | - | - | - |
| 1777312623 | 16.11° C | 60% | 1013.9 hPa | - | - | - | - |
| 1777310822 | 16.67° C | 59% | 1013.6 hPa | - | - | - | - |
| 1777309022 | 16.67° C | 60% | 1012.9 hPa | - | - | - | - |
| 1777307222 | 16.67° C | 59% | 1013 hPa | - | - | - | - |
| 1777305422 | 17.22° C | 59% | 1013 hPa | - | - | - | - |
| 1777303622 | 17.22° C | 58% | 1012.4 hPa | - | - | - | - |
| 1777301822 | 17.22° C | 54% | 1012.5 hPa | - | - | - | - |
| 1777300022 | 17.22° C | 45% | 1012.8 hPa | - | - | - | - |
| 1777298222 | 16.67° C | 58% | 1013.2 hPa | - | - | - | - |
| 1777296421 | 16.67° C | 58% | 1013.3 hPa | - | - | - | - |
| 1777294621 | 16.67° C | 59% | 1013.4 hPa | - | - | - | - |
* Rain since midnight (hover to see other rain measurements)
** Current wind speed in m/s (hover to see current wind gust speed)